Wind_Speed
31 31 32 31 30 29 29 29 30 29 29 30 32 32 33 33 33 34 34 35 36 37 38 39 40 40 40 40 40 41 42 43 44 44 44 44 44 45 45 45 45 45 45
29 29 29 29 29 29 29 29 29 28 29 30 31 32 32 32 32 34 35 35 36 37 38 38 39 38 38 39 40 41 41 41 42 42 42 42 42 42 42 42 42 43 43
26 27 27 27 27 27 27 28 28 28 29 29 29 29 30 31 32 33 33 34 35 35 36 36 36 37 37 38 38 38 39 39 39 39 40 40 39 39 40 40 40 41 41
24 24 24 24 25 25 26 27 27 27 27 27 28 29 30 31 31 32 33 33 34 34 34 34 35 35 35 35 35 35 36 36 36 36 36 36 36 36 37 37 37 37 36
22 22 22 23 23 24 24 25 25 25 25 26 26 27 28 29 30 31 31 31 31 31 31 32 32 32 32 32 32 32 32 32 32 33 33 33 33 34 34 34 34 33 32
20 20 20 21 21 21 21 21 22 23 24 24 25 26 26 27 27 27 28 28 28 29 30 30 30 30 30 30 31 31 31 30 30 29 30 30 30 30 29 29 29 28 27
17 18 18 19 19 19 19 20 21 22 22 23 23 24 25 25 25 25 25 26 26 27 27 28 28 28 28 28 27 27 27 27 27 27 27 27 26 26 26 25 24 23 22
16 16 15 15 16 17 18 18 18 18 19 20 21 22 22 23 23 23 24 24 24 24 24 24 24 25 25 25 25 24 24 24 24 24 23 23 22 22 21 20 19 19 18
14 14 14 15 15 15 15 15 16 17 18 18 19 19 20 20 20 21 21 21 21 21 21 21 21 21 22 22 22 22 22 22 22 21 20 19 18 17 16 15 15 15 15
13 13 13 13 14 14 14 14 15 16 16 17 17 17 18 19 19 20 20 19 19 19 19 19 19 19 20 20 19 19 19 19 18 18 17 15 14 13 13 12 11 11 11
12 12 13 13 13 13 13 14 14 15 15 15 16 16 17 17 17 17 17 17 17 17 17 18 17 17 18 17 17 16 16 16 15 14 12 11 10 10 9 9 8 8 8
10 11 11 11 12 12 12 12 13 13 14 14 14 15 15 15 16 16 15 15 15 15 15 15 15 15 15 14 14 14 13 12 11 10 9 8 7 7 6 6 6 6 6
8 9 9 10 10 10 11 11 12 12 12 12 13 13 13 13 14 14 14 13 13 13 13 13 13 12 12 12 11 10 9 8 7 7 6 6 5 5 5 5 5 5 6
6 7 7 8 8 9 10 10 10 10 10 10 11 11 11 11 11 11 11 10 10 10 11 11 11 11 10 9 8 7 6 6 5 5 4 4 4 3 3 3 3 4 6
6 6 7 7 7 8 8 8 8 8 8 8 9 9 9 9 9 9 9 10 10 10 9 9 9 8 7 7 7 6 5 4 3 3 2 2 2 2 2 2 3 4 5
5 5 6 6 6 6 6 6 6 6 7 7 7 7 7 7 7 7 8 8 8 7 7 7 7 6 6 6 5 4 3 3 2 1 1 1 0 0 1 2 3 4 4
3 3 4 4 4 4 5 5 5 5 6 6 5 5 6 6 6 6 6 6 6 6 6 6 6 5 5 5 4 3 2 1 1 1 1 1 1 1 2 3 3 4 5
2 3 4 4 4 4 4 5 5 5 5 4 5 5 5 6 6 6 6 5 5 5 5 5 4 4 4 3 3 2 1 0 1 1 2 2 3 3 3 3 4 5 5
3 4 4 4 4 4 4 5 5 4 4 4 4 5 5 5 5 5 5 5 5 5 4 4 3 3 3 3 2 1 1 1 2 2 3 3 4 4 4 4 5 5 6
5 5 5 6 6 6 6 6 5 5 5 6 6 6 6 5 5 5 5 5 5 5 4 4 3 3 3 2 2 2 2 3 3 4 4 5 5 5 5 5 5 6 6
8 8 7 8 8 8 8 8 8 7 7 7 7 7 7 7 7 7 7 6 6 5 5 5 4 4 4 3 4 4 4 4 5 5 6 6 6 6 6 6 6 6 6
9 9 10 10 10 10 10 10 10 10 9 9 9 9 8 8 8 8 8 8 7 7 7 6 5 5 5 5 5 5 6 6 6 7 7 7 7 7 7 6 6 6 6
11 11 11 11 11 11 11 11 11 11 11 11 10 10 10 10 10 9 9 9 9 9 8 8 8 7 7 7 7 7 7 7 7 7 7 7 7 7 6 6 6 6 6
13 13 12 12 12 12 12 11 11 11 11 11 11 11 11 11 11 11 11 11 11 10 10 9 9 9 8 8 8 7 7 7 7 7 7 7 7 6 6 6 5 5 6
14 13 13 13 12 12 12 12 12 12 12 12 12 12 12 12 12 12 12 12 12 11 11 11 10 10 9 9 8 8 8 8 8 8 7 7 6 6 5 5 5 5 6
14 14 13 13 13 12 12 12 12 12 12 12 12 11 11 11 11 11 12 12 12 12 11 11 11 11 10 9 9 9 9 8 8 7 7 6 6 5 5 4 5 5 6
Wind_Direction
263 263 264 262 260 260 260 260 259 260 259 259 262 263 265 266 266 267 268 269 270 271 272 273 273 274 275 277 278 279 279 280 281 281 282 282 283 283 284 284 284 285 285
262 263 264 261 258 257 258 257 257 256 257 260 263 264 265 267 268 269 269 269 271 272 273 274 275 275 277 278 279 280 281 281 281 282 283 284 285 285 285 286 286 286 286
263 265 264 262 259 258 257 257 256 258 260 263 264 264 266 268 269 269 270 270 272 273 274 275 276 277 279 280 280 281 281 281 282 283 284 285 285 286 286 286 286 286 287
263 264 262 260 258 259 259 258 260 260 261 263 264 267 268 270 271 273 273 274 274 274 275 275 276 278 280 281 281 281 282 282 283 284 285 285 286 286 287 288 288 288 288
261 259 258 259 257 257 258 258 260 261 263 266 269 270 270 272 274 274 275 275 276 275 275 276 278 280 281 281 281 282 284 285 285 285 286 286 286 287 288 289 290 290 289
260 258 258 259 258 258 258 258 261 264 266 269 269 270 272 274 275 275 277 278 278 278 277 277 278 281 283 284 284 284 285 286 286 287 288 287 288 288 290 291 292 293 293
260 258 257 258 258 258 260 261 264 266 268 269 270 273 274 274 275 277 279 280 280 280 279 279 281 282 282 284 285 286 286 287 287 288 290 290 290 290 290 292 293 295 296
261 259 258 259 262 263 263 265 266 267 270 272 274 275 276 276 277 278 280 281 282 282 282 282 283 284 285 285 286 287 289 289 290 291 293 293 292 292 293 294 296 298 300
262 262 263 263 264 266 268 271 270 272 273 274 275 276 277 277 279 281 283 284 283 284 285 284 286 287 288 288 289 290 290 292 293 294 295 297 297 297 298 298 300 302 305
266 265 266 268 270 272 273 274 275 276 276 278 281 280 280 280 281 281 283 284 284 285 287 289 290 291 292 293 292 293 293 295 295 295 296 297 298 300 301 303 306 309 313
270 270 270 273 275 276 277 277 279 278 278 281 283 282 281 282 282 284 285 286 287 288 291 293 295 297 297 296 295 294 294 294 296 297 296 295 297 300 304 310 314 317 321
271 274 277 279 279 280 282 284 284 283 283 285 285 285 284 285 285 286 287 288 289 292 295 297 298 300 300 299 298 296 295 295 297 298 297 297 296 299 306 313 321 326 330
274 277 281 282 282 285 288 290 292 290 289 289 288 287 286 286 287 288 288 288 290 293 297 298 301 304 304 303 301 300 299 299 299 297 296 295 293 300 312 321 332 339 342
277 281 281 283 283 287 294 296 295 294 292 291 291 291 291 289 289 290 290 291 293 297 301 301 303 304 305 306 304 301 300 300 302 301 297 293 302 317 327 334 348 358 359
283 287 290 293 296 299 301 303 303 301 300 298 297 297 296 295 295 296 295 295 296 298 300 302 303 304 305 307 307 303 301 297 298 300 297 299 310 329 353 8 12 17 16
295 295 298 303 304 304 307 311 312 312 311 310 308 306 305 305 306 306 304 302 301 302 303 304 306 307 308 308 307 303 299 294 292 281 257 239 254 6 26 28 29 31 32
327 320 322 325 326 326 327 327 325 323 321 321 322 322 322 323 319 316 314 310 309 310 310 310 312 316 317 312 311 308 301 282 257 219 185 169 134 87 55 45 43 44 38
355 351 350 353 354 353 349 345 342 340 341 339 337 333 332 332 330 328 328 325 324 325 326 327 327 327 328 331 329 326 317 238 170 148 133 128 116 95 76 71 64 54 49
23 24 24 24 22 18 14 14 13 11 10 7 1 354 350 347 345 346 346 346 346 346 345 344 344 344 346 351 357 16 63 104 119 124 120 117 113 104 94 89 77 64 59
55 53 52 48 46 43 41 40 38 36 34 29 25 21 17 12 10 12 12 11 11 11 11 8 7 10 14 23 39 57 79 99 112 117 117 115 112 107 104 97 84 74 65
65 65 63 60 58 57 55 56 56 53 50 45 41 39 36 33 33 33 31 30 29 30 29 29 31 35 44 54 64 74 86 98 106 111 113 111 107 106 105 97 86 77 67
70 71 69 66 65 64 63 63 61 57 53 51 50 48 47 46 45 44 41 39 38 38 39 41 46 52 60 69 77 85 93 100 104 108 110 109 108 106 101 95 88 78 66
73 71 70 68 68 67 66 64 61 58 56 54 54 54 52 50 47 46 45 44 45 47 50 53 57 62 70 77 84 90 96 99 103 107 110 109 106 101 97 93 85 73 59
73 71 70 70 69 68 67 65 62 60 57 55 55 55 54 52 50 49 49 49 51 54 56 58 61 66 72 78 82 88 93 97 100 105 107 104 101 98 93 86 76 64 50
71 70 69 69 68 67 66 64 62 59 56 56 55 55 54 53 52 51 52 53 54 55 57 60 64 68 72 76 80 85 89 92 96 99 100 99 96 91 85 76 62 48 37
69 69 68 66 66 65 64 62 60 57 56 55 54 54 54 53 52 52 52 53 54 56 58 61 63 66 70 74 79 82 85 87 89 91 91 89 86 80 71 57 42 29 20
Height
5760 5760 5760 5760 5760 5760 5760 5760 5761 5761 5762 5762 5762 5762 5762 5762 5762 5762 5761 5761 5760 5759 5758 5757 5756 5755 5754 5753 5751 5750 5748 5746 5743 5741 5739 5737 5734 5732 5728 5725 5722 5719 5716
5752 5752 5752 5751 5751 5752 5752 5752 5753 5753 5754 5754 5754 5754 5754 5754 5753 5753 5752 5751 5750 5749 5748 5747 5746 5745 5744 5742 5741 5739 5737 5735 5732 5730 5728 5726 5723 5720 5717 5714 5711 5708 5705
5744 5744 5744 5744 5743 5744 5744 5745 5745 5746 5746 5746 5746 5746 5746 5745 5745 5744 5743 5741 5740 5739 5738 5737 5736 5735 5733 5732 5730 5728 5726 5724 5722 5720 5717 5715 5712 5710 5707 5704 5701 5698 5695
5736 5736 5736 5736 5736 5736 5737 5737 5738 5738 5738 5738 5738 5738 5737 5737 5736 5735 5734 5732 5731 5730 5729 5728 5727 5726 5724 5722 5720 5718 5716 5714 5712 5710 5707 5705 5703 5700 5697 5695 5692 5689 5686
5729 5729 5728 5728 5729 5729 5729 5730 5730 5730 5731 5731 5730 5730 5729 5728 5727 5726 5725 5723 5722 5721 5720 5719 5718 5716 5715 5713 5711 5709 5707 5705 5703 5700 5698 5695 5693 5691 5688 5685 5683 5680 5677
5723 5722 5722 5722 5722 5723 5723 5723 5723 5723 5723 5723 5723 5722 5722 5721 5719 5718 5716 5715 5714 5713 5712 5710 5709 5708 5706 5704 5703 5700 5698 5696 5694 5691 5689 5687 5684 5682 5680 5678 5675 5673 5671
5717 5717 5717 5717 5717 5717 5717 5717 5717 5717 5717 5717 5716 5715 5714 5713 5712 5711 5709 5708 5707 5705 5704 5703 5701 5699 5698 5696 5694 5692 5690 5688 5686 5684 5682 5679 5677 5675 5674 5672 5669 5667 5665
5712 5712 5712 5712 5712 5712 5712 5712 5711 5711 5711 5710 5710 5708 5707 5706 5705 5704 5703 5701 5700 5698 5697 5696 5694 5692 5691 5689 5687 5685 5683 5681 5679 5677 5675 5673 5671 5670 5668 5666 5664 5662 5660
5707 5708 5708 5707 5707 5707 5707 5706 5706 5706 5705 5705 5704 5703 5702 5701 5700 5698 5697 5695 5694 5693 5691 5689 5688 5686 5684 5682 5681 5679 5677 5675 5673 5671 5670 5668 5666 5665 5663 5662 5660 5659 5657
5703 5703 5703 5703 5703 5703 5702 5702 5702 5701 5701 5700 5699 5698 5697 5695 5694 5693 5692 5690 5689 5687 5686 5684 5682 5680 5678 5676 5675 5674 5672 5670 5669 5667 5665 5664 5662 5661 5660 5658 5657 5655 5654
5700 5699 5699 5699 5699 5699 5698 5698 5697 5697 5696 5695 5694 5693 5692 5691 5690 5688 5687 5686 5684 5682 5681 5679 5677 5675 5673 5671 5670 5669 5667 5666 5664 5663 5662 5661 5659 5658 5657 5656 5655 5653 5651
5696 5696 5696 5696 5695 5695 5695 5694 5694 5693 5692 5691 5690 5688 5687 5686 5685 5684 5683 5681 5680 5678 5677 5675 5673 5671 5669 5668 5666 5665 5663 5662 5661 5660 5659 5658 5657 5656 5655 5654 5653 5651 5650
5694 5694 5693 5693 5693 5692 5692 5691 5690 5689 5688 5687 5686 5684 5683 5682 5681 5680 5679 5677 5676 5675 5673 5671 5670 5668 5666 5665 5663 5661 5660 5659 5659 5658 5657 5656 5655 5654 5654 5653 5651 5650 5649
5692 5692 5691 5691 5691 5690 5689 5688 5687 5686 5685 5684 5683 5681 5680 5679 5677 5676 5675 5674 5673 5671 5670 5668 5667 5665 5663 5661 5660 5659 5658 5657 5656 5656 5655 5654 5654 5653 5652 5652 5651 5650 5648
5690 5690 5690 5689 5689 5688 5687 5686 5685 5684 5682 5681 5680 5678 5677 5676 5675 5674 5672 5671 5670 5668 5667 5666 5664 5662 5661 5659 5658 5657 5656 5655 5655 5654 5654 5653 5653 5652 5652 5651 5650 5649 5648
5689 5689 5688 5687 5686 5686 5685 5684 5682 5681 5680 5679 5678 5676 5675 5674 5673 5671 5670 5669 5667 5666 5665 5663 5662 5660 5659 5657 5656 5655 5655 5654 5653 5653 5653 5652 5652 5652 5651 5651 5650 5649 5648
5688 5687 5687 5686 5685 5684 5683 5682 5681 5680 5679 5677 5676 5675 5674 5673 5672 5670 5669 5667 5666 5664 5663 5661 5660 5658 5657 5656 5655 5654 5653 5653 5652 5652 5652 5652 5652 5652 5651 5651 5650 5649 5648
5688 5687 5686 5685 5684 5683 5682 5681 5680 5679 5678 5677 5675 5674 5673 5672 5670 5669 5667 5666 5664 5663 5661 5660 5658 5657 5656 5655 5654 5653 5653 5652 5652 5652 5652 5652 5652 5651 5651 5651 5650 5649 5649
5687 5686 5686 5685 5684 5683 5682 5681 5680 5679 5677 5676 5675 5674 5672 5671 5670 5668 5666 5665 5663 5662 5660 5659 5658 5657 5655 5654 5653 5653 5652 5652 5652 5651 5651 5651 5652 5652 5652 5651 5651 5650 5649
5688 5687 5686 5686 5685 5684 5683 5681 5680 5679 5678 5677 5675 5674 5672 5671 5670 5668 5666 5665 5663 5661 5660 5659 5658 5656 5655 5654 5653 5653 5652 5652 5652 5652 5652 5652 5652 5652 5652 5652 5652 5652 5651
5689 5689 5688 5687 5686 5685 5684 5683 5681 5680 5679 5678 5676 5675 5673 5672 5670 5668 5667 5665 5663 5662 5661 5659 5658 5656 5655 5654 5654 5653 5653 5652 5652 5652 5653 5653 5653 5653 5654 5653 5653 5653 5652
5691 5691 5690 5689 5688 5687 5686 5685 5683 5682 5681 5679 5678 5676 5675 5673 5671 5670 5668 5666 5664 5663 5661 5660 5658 5657 5656 5655 5655 5654 5654 5654 5654 5654 5654 5654 5655 5655 5655 5655 5655 5654 5654
5694 5693 5692 5691 5690 5689 5688 5687 5686 5685 5683 5682 5680 5679 5677 5675 5673 5672 5670 5668 5666 5664 5663 5661 5660 5659 5658 5657 5656 5656 5656 5656 5656 5656 5656 5656 5656 5657 5657 5656 5656 5656 5655
5697 5696 5695 5694 5693 5692 5691 5690 5689 5687 5686 5684 5683 5681 5679 5678 5676 5674 5672 5670 5668 5667 5665 5664 5662 5661 5660 5659 5659 5658 5658 5658 5658 5658 5658 5658 5658 5658 5658 5658 5658 5657 5656
5700 5699 5698 5697 5696 5695 5694 5693 5691 5690 5688 5687 5685 5684 5682 5680 5679 5677 5675 5673 5671 5670 5668 5666 5665 5664 5663 5662 5661 5661 5661 5660 5660 5660 5660 5660 5660 5660 5660 5659 5659 5658 5657
5704 5703 5702 5700 5699 5698 5697 5696 5694 5693 5691 5690 5688 5687 5685 5683 5682 5680 5678 5676 5675 5673 5671 5670 5668 5667 5666 5665 5664 5664 5664 5663 5663 5663 5663 5663 5662 5662 5661 5661 5660 5659 5657